Weather History for KMSS - December, 2012

Change the Weather History Date:

Monday, December 24, 2012

  Actual Average Record
Temperature  
Mean Temperature 14 °F 19 °F  
Max Temperature 24 °F 27 °F 56 °F (1957)
Min Temperature 3 °F 10 °F -30 °F (1973)
Degree Days  
Heating Degree Days 51 46  
Month to date heating degree days 822 996  
Since 1 July heating degree days 2429 2765  
Cooling Degree Days 0 0  
Month to date cooling degree days 0  
Year to date cooling degree days 363  
Moisture  
Dew Point 11 °F    
Average Humidity 80    
Maximum Humidity 92    
Minimum Humidity 67    
Precipitation  
Precipitation 0.00 in 0.08 in 0.59 in (1970)
Month to date precipitation 3.50 1.92  
Year to date precipitation 29.98 34.45  
Sea Level Pressure  
Sea Level Pressure 30.07 in    
Wind  
Wind Speed 5 mph (West)    
Max Wind Speed 16 mph    
Max Gust Speed 21 mph    
Visibility 10 miles    
Events      
T = Trace of Precipitation, MM = Missing Value Source: NWS Daily Summary

Daily Weather History Graph

Daily Weather History Graph

Search for Another Location

Airport or City:

Trip Planner

Search our weather history database for the weather conditions in past years. The results will help you decide how hot, cold, wet, or windy it might be!

Date:

Astronomy

Dec. 24, 2012 Rise Set
Actual Time 7:35 AM EST 4:22 PM EST
Civil Twilight 7:02 AM EST 4:56 PM EST
Nautical Twilight 6:24 AM EST 5:33 PM EST
Astronomical Twilight 5:49 AM EST 6:09 PM EST
Moon 1:51 PM EST (12/24) 4:08 AM EST (12/24)
Length of Visible Light 9h 54m
Length of Day
8h 46m
Waxing Gibbous, 88% of the Moon is Illuminated
Dec 24
Waxing Gibbous
Dec 28
Full
Jan 4
Last Quarter
Jan 11
New
Jan 18
First Quarter

Hourly Weather History & Observations

Time (EST) Temp. Windchill Dew Point Humidity Pressure Visibility Wind Dir Wind Speed Gust Speed Precip Events Conditions
12:53 AM 16.0 °F 2.9 °F 8.1 °F 71% 29.99 in 10.0 mi West 11.5 mph 19.6 mph N/A   Mostly Cloudy
1:19 AM 15.8 °F 6.1 °F 8.6 °F 73% 29.97 in 10.0 mi WSW 6.9 mph - N/A   Scattered Clouds
1:53 AM 15.1 °F 4.2 °F 8.1 °F 74% 30.00 in 10.0 mi WSW 8.1 mph - N/A   Clear
2:16 AM 15.8 °F 6.1 °F 8.6 °F 73% 29.98 in 10.0 mi WSW 6.9 mph - N/A   Mostly Cloudy
2:30 AM 14.0 °F 6.5 °F 8.6 °F 79% 29.99 in 10.0 mi SW 4.6 mph - N/A   Scattered Clouds
2:53 AM 8.1 °F -0.5 °F 5.0 °F 87% 30.01 in 10.0 mi SSW 4.6 mph - N/A   Clear
3:53 AM 8.1 °F -0.5 °F 7.0 °F 95% 30.01 in 10.0 mi SSW 4.6 mph - N/A   Clear
4:53 AM 7.0 °F 0.1 °F 3.9 °F 87% 30.03 in 10.0 mi WSW 3.5 mph - N/A   Clear
5:53 AM 10.9 °F 2.9 °F 8.1 °F 88% 30.04 in 10.0 mi SW 4.6 mph - N/A   Mostly Cloudy
6:53 AM 15.1 °F 7.7 °F 12.0 °F 88% 30.07 in 10.0 mi SW 4.6 mph - N/A   Overcast
7:53 AM 17.1 °F 8.7 °F 12.9 °F 84% 30.10 in 10.0 mi SW 5.8 mph - N/A   Overcast
8:53 AM 17.1 °F 11.7 °F 10.0 °F 74% 30.11 in 10.0 mi WSW 3.5 mph - N/A   Clear
9:53 AM 19.0 °F 9.0 °F 10.0 °F 68% 30.12 in 10.0 mi West 8.1 mph - N/A   Clear
10:53 AM 19.9 °F 12.1 °F 10.9 °F 68% 30.12 in 10.0 mi WNW 5.8 mph - N/A   Clear
11:53 AM 19.9 °F 13.4 °F 12.0 °F 71% 30.12 in 10.0 mi WNW 4.6 mph - N/A   Clear
12:53 PM 23.0 °F - 14.0 °F 68% 30.12 in 10.0 mi Calm Calm - N/A   Mostly Cloudy
1:14 PM 21.2 °F - 14.0 °F 74% 30.09 in 10.0 mi Calm Calm - N/A   Mostly Cloudy
1:21 PM 21.2 °F - 14.0 °F 74% 30.09 in 10.0 mi Calm Calm - N/A   Mostly Cloudy
1:53 PM 23.0 °F - 14.0 °F 68% 30.11 in 10.0 mi Calm Calm - N/A   Overcast
2:53 PM 23.0 °F 18.4 °F 14.0 °F 68% 30.11 in 10.0 mi NNE 3.5 mph - N/A   Overcast
3:53 PM 23.0 °F 18.4 °F 15.1 °F 72% 30.11 in 10.0 mi NNE 3.5 mph - N/A   Overcast
4:53 PM 21.0 °F 14.6 °F 15.1 °F 78% 30.11 in 10.0 mi NE 4.6 mph - N/A   Overcast
5:53 PM 21.0 °F 16.2 °F 15.1 °F 78% 30.09 in 10.0 mi East 3.5 mph - N/A   Overcast
6:53 PM 19.9 °F 14.9 °F 15.1 °F 81% 30.09 in 10.0 mi NNE 3.5 mph - N/A   Overcast
7:53 PM 19.0 °F 12.3 °F 14.0 °F 81% 30.08 in 10.0 mi NE 4.6 mph - N/A   Partly Cloudy
8:53 PM 19.9 °F 6.7 °F 15.1 °F 81% 30.06 in 10.0 mi NNE 13.8 mph - N/A   Mostly Cloudy
9:53 PM 19.9 °F - 15.1 °F 81% 30.09 in 10.0 mi Calm Calm - N/A   Partly Cloudy
10:53 PM 18.0 °F - 14.0 °F 84% 30.09 in 10.0 mi Calm Calm - N/A   Clear
11:53 PM 12.9 °F 3.8 °F 10.9 °F 92% 30.09 in 10.0 mi NNE 5.8 mph - N/A   Clear